This is the latest recevied weather packets stored in our database for station/object YO6KXQ-10. If no packets are shown the sender has not sent any weather packets the latest 10 day(s).
| Time | Temp. | Humidity | Pressure | Rain* | Wind** | Luminosity | Snow |
|---|---|---|---|---|---|---|---|
| 1776961749 | 17.78° C | 57% | 1013.4 hPa | - | - | - | - |
| 1776960729 | 17.78° C | 57% | 1013.4 hPa | - | - | - | - |
| 1776959709 | 18.33° C | 57% | 1013.4 hPa | - | - | - | - |
| 1776958689 | 18.33° C | 57% | 1013.5 hPa | - | - | - | - |
| 1776957669 | 18.33° C | 56% | 1013.4 hPa | - | - | - | - |
| 1776956649 | 18.33° C | 56% | 1013.4 hPa | - | - | - | - |
| 1776955625 | 17.78° C | 56% | 1013.3 hPa | - | - | - | - |
| 1776954605 | 17.22° C | 53% | 1013.3 hPa | - | - | - | - |
| 1776953585 | 17.22° C | 51% | 1013.4 hPa | - | - | - | - |
| 1776952565 | 17.22° C | 49% | 1013.7 hPa | - | - | - | - |
| 1776951545 | 16.67° C | 51% | 1013.7 hPa | - | - | - | - |
| 1776950524 | 16.11° C | 51% | 1013.9 hPa | - | - | - | - |
| 1776949504 | 16.11° C | 51% | 1014 hPa | - | - | - | - |
| 1776948484 | 16.11° C | 51% | 1014 hPa | - | - | - | - |
| 1776947464 | 16.11° C | 51% | 1014.1 hPa | - | - | - | - |
| 1776946448 | 16.11° C | 51% | 1014.7 hPa | - | - | - | - |
| 1776945424 | 16.11° C | 51% | 1014.9 hPa | - | - | - | - |
| 1776944403 | 16.11° C | 51% | 1015 hPa | - | - | - | - |
| 1776943383 | 15.56° C | 51% | 1015.1 hPa | - | - | - | - |
| 1776942363 | 15.56° C | 51% | 1015.2 hPa | - | - | - | - |
| 1776941343 | 15.56° C | 52% | 1015.5 hPa | - | - | - | - |
| 1776940320 | 15.56° C | 52% | 1015.7 hPa | - | - | - | - |
| 1776939300 | 15.56° C | 52% | 1016.1 hPa | - | - | - | - |
| 1776938280 | 16.11° C | 52% | 1016.1 hPa | - | - | - | - |
| 1776937259 | 15.56° C | 52% | 1016.4 hPa | - | - | - | - |
* Rain since midnight (hover to see other rain measurements)
** Current wind speed in m/s (hover to see current wind gust speed)